Temp
-9 -10 -10 -10 -10 -10 -10 -9 -9 -9 -9 -9 -9 -9 -9 -9 -9 -10 -10 -10 -10 -10 -10 -10 -10 -10 -10 -10 -10 -10 -10 -9 -9 -9 -9 -9 -10 -10 -10 -10 -10 -10 -10
-9 -10 -9 -10 -10 -10 -10 -10 -9 -9 -9 -9 -9 -9 -9 -9 -10 -10 -10 -10 -10 -10 -10 -10 -10 -10 -10 -10 -10 -10 -10 -10 -10 -10 -10 -10 -10 -10 -10 -10 -10 -10 -10
-9 -10 -9 -10 -10 -10 -10 -10 -10 -9 -10 -10 -9 -10 -10 -10 -10 -10 -10 -10 -11 -10 -10 -10 -10 -10 -10 -10 -10 -10 -10 -10 -10 -10 -10 -10 -10 -10 -10 -10 -10 -10 -10
-9 -9 -9 -10 -10 -10 -10 -10 -10 -10 -10 -10 -10 -10 -10 -10 -10 -11 -11 -11 -11 -10 -10 -10 -10 -10 -10 -10 -10 -10 -10 -10 -10 -10 -9 -9 -10 -10 -10 -10 -10 -10 -10
-9 -9 -9 -10 -10 -10 -10 -10 -10 -10 -9 -10 -9 -10 -10 -11 -11 -11 -11 -11 -10 -10 -10 -10 -10 -10 -10 -10 -10 -10 -10 -10 -9 -10 -9 -10 -10 -10 -10 -10 -10 -10 -11
-9 -9 -9 -9 -11 -10 -10 -11 -10 -10 -10 -9 -9 -9 -10 -10 -11 -11 -11 -10 -10 -10 -10 -10 -10 -10 -10 -10 -10 -10 -10 -10 -10 -10 -10 -10 -10 -10 -10 -10 -10 -10 -11
-9 -9 -9 -9 -11 -11 -11 -11 -10 -10 -10 -9 -9 -9 -10 -10 -10 -10 -10 -10 -10 -10 -10 -10 -10 -10 -10 -10 -10 -10 -10 -10 -10 -10 -10 -10 -10 -10 -10 -10 -10 -10 -11
-9 -9 -9 -9 -9 -11 -11 -11 -11 -10 -10 -10 -9 -9 -10 -9 -10 -10 -10 -10 -10 -10 -10 -10 -10 -10 -10 -10 -10 -10 -10 -10 -10 -10 -10 -10 -10 -10 -10 -10 -10 -10 -11
-9 -9 -9 -10 -10 -10 -11 -11 -11 -11 -10 -10 -10 -9 -9 -9 -9 -9 -10 -10 -10 -9 -10 -10 -10 -10 -10 -10 -10 -10 -10 -10 -10 -10 -10 -10 -10 -10 -10 -10 -11 -11 -11
-10 -10 -9 -10 -10 -10 -10 -11 -11 -11 -10 -10 -10 -10 -10 -9 -9 -9 -9 -9 -9 -9 -9 -10 -10 -10 -10 -10 -10 -10 -10 -10 -10 -10 -10 -10 -10 -10 -11 -11 -10 -10 -11
-10 -9 -10 -10 -10 -9 -10 -10 -11 -11 -11 -11 -10 -10 -10 -10 -9 -9 -9 -9 -9 -9 -10 -10 -10 -10 -10 -10 -10 -10 -10 -10 -10 -10 -10 -10 -10 -11 -11 -11 -10 -10 -11
-10 -10 -10 -10 -10 -10 -9 -10 -10 -11 -11 -11 -11 -10 -10 -10 -10 -10 -10 -10 -9 -9 -10 -10 -10 -10 -10 -10 -10 -10 -10 -10 -10 -10 -10 -10 -10 -11 -11 -11 -11 -11 -11
-10 -10 -9 -10 -10 -10 -9 -10 -10 -11 -11 -11 -11 -11 -10 -10 -10 -10 -10 -10 -10 -10 -10 -10 -10 -10 -10 -10 -10 -10 -10 -10 -10 -10 -10 -10 -11 -11 -11 -11 -11 -11 -11
-10 -10 -10 -10 -10 -10 -10 -10 -10 -11 -11 -11 -11 -11 -11 -11 -11 -11 -11 -10 -10 -10 -10 -10 -10 -10 -10 -10 -10 -10 -10 -10 -10 -10 -10 -10 -11 -11 -11 -11 -11 -11 -11
-9 -9 -10 -10 -10 -10 -9 -10 -10 -11 -11 -11 -11 -11 -11 -11 -11 -11 -11 -11 -10 -10 -10 -10 -10 -10 -10 -10 -10 -10 -10 -10 -10 -10 -10 -10 -11 -11 -11 -11 -11 -11 -11
-10 -9 -10 -10 -10 -10 -10 -9 -10 -10 -11 -11 -11 -11 -11 -11 -11 -11 -11 -11 -11 -11 -11 -10 -11 -11 -10 -10 -10 -10 -10 -10 -11 -10 -11 -11 -11 -11 -11 -11 -11 -11 -11
-10 -10 -9 -10 -10 -10 -10 -9 -9 -10 -11 -11 -11 -10 -11 -11 -11 -11 -11 -12 -11 -11 -11 -11 -11 -11 -11 -11 -11 -11 -11 -11 -11 -11 -11 -11 -11 -11 -11 -11 -11 -11 -11
-10 -10 -10 -10 -10 -10 -10 -10 -9 -10 -10 -10 -11 -11 -11 -10 -11 -11 -11 -12 -12 -11 -11 -11 -11 -11 -11 -11 -11 -11 -11 -11 -11 -11 -11 -11 -11 -11 -11 -11 -12 -12 -12
-11 -11 -10 -10 -10 -10 -10 -10 -9 -9 -10 -10 -10 -11 -11 -11 -11 -11 -11 -11 -12 -12 -12 -12 -11 -11 -11 -11 -11 -11 -11 -11 -11 -11 -12 -11 -12 -11 -12 -12 -12 -11 -11
-11 -11 -10 -10 -10 -10 -10 -10 -10 -9 -9 -10 -10 -11 -11 -11 -11 -11 -11 -11 -11 -12 -13 -12 -12 -12 -12 -12 -12 -11 -11 -11 -11 -11 -12 -12 -12 -12 -12 -12 -12 -12 -12
-12 -12 -10 -10 -10 -10 -10 -10 -10 -9 -9 -10 -10 -11 -11 -11 -11 -11 -11 -11 -11 -12 -13 -13 -12 -12 -13 -13 -12 -12 -11 -11 -11 -11 -11 -11 -12 -12 -12 -12 -12 -12 -12
-12 -12 -11 -11 -11 -10 -11 -10 -10 -10 -10 -10 -10 -11 -11 -10 -10 -11 -11 -11 -11 -11 -12 -12 -13 -13 -13 -13 -12 -12 -12 -12 -12 -11 -12 -12 -12 -12 -12 -12 -12 -12 -12
-12 -12 -12 -11 -11 -11 -11 -11 -11 -11 -10 -10 -10 -10 -10 -11 -11 -11 -11 -11 -11 -11 -12 -12 -12 -13 -13 -13 -12 -13 -12 -12 -12 -12 -12 -12 -12 -12 -12 -12 -12 -12 -13
-12 -12 -12 -11 -11 -12 -11 -11 -11 -11 -11 -10 -10 -10 -10 -11 -11 -11 -11 -11 -11 -11 -11 -12 -12 -12 -13 -12 -12 -12 -12 -12 -13 -12 -12 -12 -12 -12 -12 -12 -12 -13 -13
-13 -12 -12 -12 -11 -12 -12 -11 -11 -11 -11 -11 -11 -11 -11 -11 -11 -11 -11 -11 -11 -11 -11 -12 -12 -12 -12 -13 -12 -12 -12 -12 -12 -12 -12 -12 -12 -12 -13 -12 -13 -13 -13
-14 -14 -12 -13 -12 -12 -12 -12 -12 -11 -11 -11 -11 -11 -11 -11 -10 -11 -11 -11 -11 -11 -11 -11 -12 -12 -12 -12 -12 -13 -13 -13 -12 -11 -11 -13 -12 -12 -13 -13 -13 -13 -13
Height
5883 5881 5881 5880 5879 5878 5878 5877 5877 5876 5874 5873 5872 5872 5872 5872 5873 5874 5874 5875 5875 5875 5875 5874 5874 5873 5873 5873 5873 5874 5875 5876 5877 5878 5878 5878 5879 5879 5879 5880 5879 5878 5878
5883 5882 5882 5880 5879 5878 5878 5877 5876 5876 5874 5873 5873 5873 5872 5873 5874 5874 5875 5876 5875 5875 5875 5875 5875 5875 5874 5875 5875 5876 5877 5879 5880 5880 5881 5881 5881 5881 5881 5882 5881 5880 5880
5883 5883 5883 5881 5880 5879 5878 5877 5876 5875 5873 5874 5873 5874 5873 5873 5874 5875 5876 5876 5876 5876 5876 5877 5877 5876 5877 5877 5878 5879 5880 5881 5882 5882 5883 5883 5883 5883 5883 5883 5882 5882 5881
5883 5883 5883 5881 5880 5880 5878 5877 5876 5875 5874 5874 5874 5874 5873 5874 5874 5875 5876 5876 5876 5877 5878 5878 5878 5879 5879 5880 5880 5882 5883 5884 5884 5885 5885 5885 5885 5885 5886 5885 5884 5884 5884
5883 5883 5882 5882 5880 5880 5879 5878 5877 5875 5875 5875 5874 5874 5874 5874 5875 5875 5876 5876 5877 5878 5879 5880 5880 5881 5882 5882 5883 5884 5885 5886 5887 5887 5888 5888 5887 5887 5887 5887 5886 5885 5884
5882 5883 5883 5882 5881 5880 5879 5879 5877 5876 5876 5875 5875 5875 5875 5875 5875 5876 5876 5877 5878 5880 5881 5881 5882 5882 5883 5884 5885 5886 5887 5888 5889 5889 5890 5889 5890 5890 5889 5889 5888 5887 5886
5880 5882 5882 5882 5881 5880 5880 5879 5878 5876 5876 5876 5876 5876 5876 5876 5876 5877 5878 5878 5880 5882 5882 5883 5884 5884 5885 5886 5886 5887 5889 5890 5891 5891 5891 5890 5891 5891 5890 5890 5889 5888 5887
5879 5879 5881 5881 5881 5880 5879 5880 5879 5878 5876 5876 5876 5877 5877 5877 5878 5878 5879 5881 5882 5883 5884 5885 5886 5886 5887 5888 5888 5889 5890 5891 5892 5892 5892 5892 5892 5891 5891 5891 5890 5889 5889
5877 5878 5879 5879 5880 5880 5879 5879 5879 5879 5877 5876 5876 5877 5877 5878 5879 5880 5881 5882 5883 5884 5886 5887 5888 5888 5889 5889 5890 5891 5892 5893 5893 5894 5894 5893 5892 5892 5892 5892 5891 5891 5890
5873 5874 5876 5878 5878 5878 5879 5878 5879 5880 5879 5876 5876 5877 5878 5879 5880 5881 5882 5883 5885 5886 5887 5888 5889 5890 5890 5891 5892 5892 5893 5894 5894 5895 5895 5894 5893 5893 5893 5893 5892 5892 5891
5869 5871 5873 5875 5876 5877 5877 5878 5877 5879 5879 5878 5877 5877 5878 5879 5880 5882 5883 5884 5885 5887 5888 5888 5889 5890 5891 5892 5893 5893 5893 5894 5894 5894 5895 5895 5894 5893 5893 5893 5893 5893 5892
5864 5866 5869 5872 5873 5874 5874 5876 5877 5878 5879 5879 5877 5877 5878 5879 5880 5882 5883 5884 5885 5886 5888 5888 5889 5890 5891 5892 5892 5893 5893 5894 5894 5894 5894 5894 5894 5893 5893 5893 5893 5893 5892
5858 5861 5864 5867 5870 5870 5872 5873 5875 5876 5877 5878 5879 5877 5878 5878 5879 5881 5883 5884 5885 5886 5888 5889 5890 5891 5891 5892 5892 5892 5893 5894 5893 5894 5894 5894 5894 5893 5893 5892 5892 5892 5892
5852 5856 5860 5863 5866 5867 5869 5870 5871 5873 5875 5877 5878 5877 5877 5878 5879 5880 5882 5884 5885 5886 5887 5888 5890 5890 5891 5891 5891 5892 5892 5894 5893 5894 5894 5894 5894 5893 5892 5892 5892 5891 5890
5845 5850 5854 5858 5861 5863 5866 5867 5868 5870 5871 5873 5875 5877 5876 5877 5878 5879 5880 5883 5884 5885 5887 5887 5888 5890 5890 5890 5891 5891 5891 5893 5892 5894 5893 5892 5892 5892 5892 5891 5891 5890 5890
5839 5844 5848 5853 5856 5857 5861 5863 5865 5866 5868 5870 5872 5874 5875 5876 5876 5878 5879 5880 5882 5884 5885 5887 5887 5888 5889 5890 5890 5890 5890 5892 5892 5892 5891 5891 5891 5891 5890 5890 5890 5890 5889
5831 5836 5841 5846 5850 5852 5856 5858 5860 5862 5864 5866 5868 5870 5872 5874 5875 5876 5877 5879 5880 5881 5883 5885 5886 5887 5888 5888 5888 5889 5889 5889 5892 5889 5889 5889 5890 5890 5889 5889 5888 5888 5887
5821 5826 5833 5838 5843 5845 5849 5853 5855 5857 5860 5862 5865 5866 5868 5871 5873 5874 5875 5877 5878 5879 5881 5882 5883 5884 5886 5886 5887 5887 5887 5887 5888 5888 5886 5888 5888 5888 5888 5887 5887 5887 5886
5814 5816 5824 5830 5836 5840 5842 5846 5848 5851 5854 5857 5861 5863 5864 5867 5869 5872 5873 5874 5876 5877 5878 5880 5880 5882 5882 5883 5885 5886 5885 5885 5885 5886 5885 5885 5884 5885 5885 5886 5885 5885 5884
5803 5805 5813 5821 5826 5832 5834 5837 5840 5844 5848 5853 5856 5860 5860 5863 5866 5867 5870 5871 5873 5875 5876 5877 5878 5879 5880 5881 5882 5882 5882 5883 5883 5883 5883 5883 5884 5883 5882 5883 5883 5882 5882
5794 5796 5801 5810 5816 5822 5825 5829 5835 5839 5844 5847 5851 5854 5857 5858 5861 5863 5866 5868 5870 5872 5873 5874 5876 5877 5878 5878 5881 5880 5880 5880 5880 5880 5880 5880 5880 5879 5880 5879 5879 5879 5878
5785 5788 5789 5800 5806 5812 5819 5823 5828 5833 5836 5839 5841 5847 5852 5853 5856 5859 5861 5864 5866 5868 5871 5871 5873 5874 5875 5875 5877 5878 5878 5879 5878 5878 5877 5877 5877 5875 5876 5876 5875 5874 5874
5768 5777 5776 5785 5796 5802 5810 5815 5818 5822 5823 5827 5832 5839 5845 5848 5850 5854 5856 5859 5862 5863 5866 5868 5869 5870 5871 5873 5873 5876 5876 5876 5876 5874 5874 5874 5874 5873 5873 5873 5873 5872 5871
5752 5762 5767 5769 5784 5792 5799 5806 5810 5814 5818 5826 5831 5833 5839 5843 5844 5848 5851 5853 5857 5859 5861 5864 5865 5866 5867 5869 5869 5872 5872 5873 5873 5872 5872 5871 5871 5871 5870 5870 5869 5868 5866
5739 5747 5756 5755 5768 5781 5789 5797 5801 5805 5811 5818 5822 5824 5829 5835 5838 5842 5845 5846 5851 5854 5856 5858 5860 5861 5864 5864 5866 5866 5868 5869 5869 5871 5870 5868 5868 5867 5866 5866 5865 5863 5861
5720 5728 5739 5742 5751 5767 5778 5785 5792 5797 5802 5809 5813 5818 5822 5827 5831 5835 5839 5842 5844 5847 5850 5853 5854 5855 5857 5860 5862 5863 5863 5863 5865 5865 5865 5866 5864 5863 5862 5861 5860 5859 5856
Wind_Speed
3 1 4 7 8 10 11 12 13 14 11 1 4 5 6 6 7 6 7 8 8 7 5 6 6 7 8 10 13 16 18 18 18 21 23 24 24 24 23 21 21 20 19
5 3 4 5 7 9 10 12 14 15 7 1 4 7 8 8 8 9 8 8 8 6 6 9 9 14 18 20 20 20 20 21 21 22 22 23 22 21 20 19 19 19 18
7 4 7 3 5 7 10 12 14 15 7 3 5 7 8 9 9 7 7 7 7 7 11 12 15 19 20 21 21 20 20 20 21 20 20 20 19 18 17 17 18 18 19
11 9 6 4 4 6 8 10 12 12 6 2 5 7 9 9 9 8 8 7 7 10 14 15 18 20 20 21 21 19 18 19 18 18 17 16 16 15 16 16 16 17 18
13 12 7 7 4 5 6 9 10 10 5 1 4 6 8 8 7 8 7 7 10 14 15 17 18 19 19 20 20 18 16 16 15 14 14 14 13 14 15 15 15 16 17
13 12 10 11 6 5 5 7 9 8 4 1 3 4 7 8 8 10 10 11 14 15 15 17 17 18 17 17 17 17 15 13 12 11 11 11 11 13 14 14 14 15 15
16 13 12 12 10 7 5 7 7 6 2 1 1 3 5 8 9 9 10 12 14 14 15 15 15 17 17 16 16 14 13 12 9 7 8 8 9 12 14 14 13 14 14
18 17 14 15 15 12 8 7 8 5 1 1 1 3 6 8 9 10 10 11 11 12 12 13 13 13 13 12 12 11 10 8 5 5 7 8 10 11 12 13 12 13 13
21 20 17 14 17 15 11 8 8 7 2 3 2 3 6 8 9 10 12 11 10 9 9 9 9 9 8 9 8 8 6 6 6 7 7 9 10 11 12 12 11 11 12
27 24 20 16 17 16 15 11 10 8 5 4 4 4 6 8 9 10 11 10 8 6 6 5 6 6 6 5 5 5 4 5 6 7 8 9 9 10 10 10 11 11 11
29 26 24 21 18 20 16 15 12 9 8 5 5 5 8 8 9 9 9 8 7 6 5 5 4 4 4 4 4 5 5 5 5 6 7 8 8 8 8 9 10 10 10
32 29 26 24 21 22 18 15 14 12 9 8 8 8 8 10 10 9 8 7 6 5 5 5 5 4 4 5 5 5 4 5 4 6 7 7 7 7 7 8 9 9 9
36 32 27 26 23 24 23 17 16 15 13 9 9 10 9 11 10 10 9 7 5 5 4 4 4 5 5 4 3 3 3 4 5 6 6 7 7 7 6 8 8 8 8
39 35 31 27 25 27 26 22 19 18 17 13 11 11 11 11 12 11 10 9 7 5 4 3 3 3 4 3 1 0 2 3 5 6 8 8 9 8 7 8 8 8 8
43 38 34 30 27 28 29 27 24 22 20 17 14 12 11 12 12 13 13 11 10 8 7 5 4 3 4 3 2 0 2 2 6 7 9 10 10 10 9 9 10 10 10
45 41 37 33 29 29 31 31 28 26 25 21 18 15 14 13 14 14 14 13 12 11 9 8 6 5 4 3 2 2 3 4 5 9 11 11 11 11 11 10 12 13 13
49 45 40 35 33 32 29 33 31 30 28 26 23 20 17 15 15 16 16 14 14 13 12 11 10 8 7 6 5 6 7 8 4 10 11 12 11 11 11 11 12 14 16
53 51 45 41 38 35 31 35 34 34 32 30 27 24 21 18 17 17 18 17 16 15 14 13 12 11 10 9 8 8 9 10 8 8 11 11 11 10 11 13 13 14 14
56 56 50 45 42 39 33 33 38 37 35 33 29 27 24 22 20 18 19 20 19 17 16 15 14 12 12 11 10 9 11 12 11 9 8 11 12 10 10 12 14 14 13
59 61 54 49 47 42 41 37 41 39 38 34 32 29 28 25 22 21 21 22 21 19 17 15 15 13 12 11 10 11 11 11 11 10 9 10 9 7 10 11 13 14 17
62 62 61 54 51 47 47 41 34 40 37 36 34 31 29 27 25 24 22 22 23 23 20 18 16 14 13 13 10 12 12 12 12 13 12 11 11 10 9 12 14 15 17
62 65 65 59 55 52 48 44 34 41 41 40 40 35 31 31 28 26 24 23 24 25 25 21 18 17 17 15 12 11 13 12 13 13 12 13 13 14 14 14 16 17 18
66 67 71 67 61 57 51 45 42 43 48 46 43 39 34 34 31 28 28 26 26 27 27 26 24 21 19 17 17 12 13 13 14 15 15 14 14 17 17 18 19 21 20
75 70 73 73 65 61 56 49 47 42 43 39 39 39 36 34 35 31 31 30 28 28 26 28 29 26 24 20 20 17 17 14 13 16 14 16 14 16 18 20 20 21 23
73 76 73 78 70 65 61 54 51 47 45 42 41 42 40 37 38 34 33 34 28 27 28 27 30 30 28 26 22 22 18 17 15 15 17 17 16 16 19 18 18 20 21
67 71 77 79 77 70 64 59 57 51 49 45 43 42 41 40 40 37 33 33 32 29 31 28 30 31 30 28 24 22 21 22 17 16 16 14 21 19 21 22 20 21 23
Wind_Direction
272 306 16 13 6 10 12 358 345 337 331 265 128 116 122 138 145 137 126 108 94 75 57 53 74 72 77 89 91 94 91 87 88 88 87 85 83 81 77 70 66 61 57
249 269 306 6 0 8 3 354 342 339 337 268 127 121 123 126 121 114 106 97 81 69 68 96 89 97 95 93 95 95 94 96 95 92 90 88 85 81 74 66 60 53 50
243 235 290 344 359 14 9 1 348 346 8 149 144 130 118 114 110 111 106 96 85 81 105 101 101 104 101 98 95 96 100 100 99 96 94 90 84 78 70 63 55 48 49
242 242 262 293 337 10 20 6 351 355 7 139 148 126 109 108 111 112 106 93 91 115 115 105 108 104 102 101 100 100 102 105 103 101 95 88 80 71 62 54 51 50 51
249 248 241 269 301 343 12 7 353 358 19 50 128 124 118 112 108 113 109 99 106 122 112 102 104 106 105 107 104 101 104 110 102 98 86 76 62 50 43 46 49 51 50
245 258 252 264 280 311 338 351 358 360 32 59 102 133 127 116 111 114 111 105 121 123 111 103 101 106 104 101 101 98 103 106 94 85 74 60 47 37 35 38 41 50 46
242 265 271 261 266 286 298 318 348 359 23 104 82 139 138 124 119 113 113 118 126 123 110 103 101 100 99 99 98 102 103 98 95 81 61 48 38 34 36 36 36 44 39
246 254 273 273 265 264 273 293 318 339 350 176 119 137 142 131 125 120 117 120 121 119 108 102 99 98 102 105 105 104 101 99 93 53 37 29 28 29 39 35 33 32 30
242 251 264 272 259 261 262 264 290 308 263 187 166 161 146 141 135 128 122 118 120 121 116 110 106 103 104 103 103 107 105 86 63 43 35 32 30 26 30 32 27 24 27
243 248 256 263 270 250 259 252 264 287 271 186 188 176 167 157 150 141 130 127 130 134 130 124 121 117 108 103 106 101 93 76 61 42 25 23 27 26 24 20 19 17 25
243 249 253 259 269 255 249 258 249 266 272 225 187 201 177 174 171 160 148 145 150 161 160 149 144 147 132 117 101 89 89 76 44 28 20 15 15 14 13 11 13 15 19
243 248 252 254 257 248 239 250 257 255 260 251 198 201 199 187 182 179 171 164 153 162 176 157 143 135 118 113 102 90 73 47 12 19 8 4 359 351 353 360 9 9 3
242 245 244 249 250 239 237 233 241 250 258 246 230 200 202 202 191 191 191 184 176 158 174 156 144 131 117 101 84 59 41 31 346 356 348 343 341 336 338 346 353 358 350
242 243 241 246 245 240 231 231 227 236 251 261 240 221 206 207 203 199 202 205 195 187 187 170 173 158 136 131 135 61 333 19 323 333 334 334 335 329 326 326 328 338 338
238 239 239 242 243 248 236 230 229 228 239 247 253 240 229 215 215 212 204 214 219 208 207 203 196 185 166 163 184 222 306 11 322 328 326 329 328 324 322 314 313 316 335
237 237 238 239 244 249 243 235 231 227 231 236 244 246 239 233 227 223 218 214 225 232 228 225 222 220 219 220 228 260 289 312 324 321 320 324 327 326 319 317 317 318 322
237 236 236 237 241 245 246 239 232 229 228 232 237 243 244 236 241 234 225 220 222 230 241 243 240 234 239 246 253 272 286 295 328 310 317 320 323 325 319 318 323 317 316
235 236 234 233 238 243 246 240 236 230 229 232 234 240 240 240 238 242 237 226 223 225 231 241 248 249 247 250 259 267 281 288 302 307 309 308 306 313 311 312 313 318 321
231 237 234 234 234 239 241 241 236 230 229 232 232 238 241 242 237 236 242 239 226 223 226 232 239 247 251 253 260 272 276 289 296 296 292 303 310 317 313 309 314 315 313
227 234 232 232 232 232 236 240 237 230 229 230 236 234 241 243 239 238 236 241 237 226 225 228 236 242 249 257 261 267 276 287 293 294 289 292 300 298 302 315 320 316 314
229 234 236 229 231 230 233 239 240 237 231 232 235 235 236 241 242 245 238 239 239 239 227 228 235 242 247 256 263 276 276 281 288 291 293 295 306 308 301 311 306 311 313
232 231 234 233 231 232 232 238 237 235 229 229 233 233 231 240 240 241 244 238 239 239 238 232 234 235 244 258 264 273 279 282 288 288 296 299 303 304 312 307 306 308 313
229 227 235 232 230 231 233 235 236 231 228 228 232 233 232 236 239 236 242 240 237 239 236 237 235 238 245 252 266 265 274 285 298 299 299 298 298 297 300 301 302 304 307
230 226 228 233 230 231 231 233 235 237 235 237 238 243 236 233 241 238 240 241 236 244 240 238 240 240 242 248 259 268 275 283 291 299 298 294 298 301 300 299 302 303 303
234 231 226 233 229 227 231 232 233 237 235 232 232 236 236 234 239 240 238 245 240 244 249 240 241 246 245 248 252 261 267 280 285 281 289 294 296 299 299 300 306 308 310
230 233 230 228 232 226 225 231 231 235 236 233 234 236 240 234 237 240 239 245 246 238 247 245 242 242 249 251 255 263 275 279 282 281 278 286 298 299 297 302 304 303 307